This is the latest recevied weather packets stored in our database for station/object ON7XX-13. If no packets are shown the sender has not sent any weather packets the latest 10 day(s).
| Time | Temp. | Humidity | Pressure | Rain* | Wind** | Luminosity | Snow |
|---|---|---|---|---|---|---|---|
| 1777905009 | 22.22° C | 67% | 1013.7 hPa | - | - | - | - |
| 1777904395 | 22.22° C | 66% | 1013.8 hPa | - | - | - | - |
| 1777903780 | 22.22° C | 65% | 1013.9 hPa | - | - | - | - |
| 1777903167 | 22.78° C | 65% | 1013.9 hPa | - | - | - | - |
| 1777902552 | 23.33° C | 66% | 1014 hPa | - | - | - | - |
| 1777901938 | 22.78° C | 67% | 1014.1 hPa | - | - | - | - |
| 1777901324 | 22.22° C | 70% | 1014.2 hPa | - | - | - | - |
| 1777900709 | 21.67° C | 73% | 1014.3 hPa | - | - | - | - |
| 1777900096 | 21.67° C | 72% | 1014.4 hPa | - | - | - | - |
| 1777899481 | 21.67° C | 74% | 1014.4 hPa | - | - | - | - |
| 1777898867 | 21.67° C | 74% | 1014.5 hPa | - | - | - | - |
| 1777898253 | 21.67° C | 72% | 1014.5 hPa | - | - | - | - |
| 1777897639 | 21.11° C | 74% | 1014.6 hPa | - | - | - | - |
| 1777897024 | 21.11° C | 75% | 1014.6 hPa | - | - | - | - |
| 1777896410 | 20.56° C | 77% | 1014.6 hPa | - | - | - | - |
| 1777895795 | 21.11° C | 77% | 1014.7 hPa | - | - | - | - |
| 1777895182 | 20.56° C | 78% | 1014.7 hPa | - | - | - | - |
| 1777894567 | 20.56° C | 77% | 1014.8 hPa | - | - | - | - |
| 1777893953 | 20.56° C | 79% | 1014.8 hPa | - | - | - | - |
| 1777893339 | 20.56° C | 79% | 1015 hPa | - | - | - | - |
| 1777892725 | 20.56° C | 79% | 1015 hPa | - | - | - | - |
| 1777892111 | 20° C | 79% | 1015 hPa | - | - | - | - |
| 1777891496 | 19.44° C | 81% | 1015.1 hPa | - | - | - | - |
| 1777890882 | 19.44° C | 82% | 1015 hPa | - | - | - | - |
| 1777890268 | 19.44° C | 83% | 1015.1 hPa | - | - | - | - |
* Rain since midnight (hover to see other rain measurements)
** Current wind speed in m/s (hover to see current wind gust speed)